This is the latest recevied weather packets stored in our database for station/object DOUGLAS. If no packets are shown the sender has not sent any weather packets the latest 10 day(s).
| Time | Temp. | Humidity | Pressure | Rain* | Wind** | Luminosity | Snow |
|---|---|---|---|---|---|---|---|
| 1777586403 | 23.89° C | 30% | 0 hPa | - | - | - | - |
| 1777585803 | 23.89° C | 30% | 0 hPa | - | - | - | - |
| 1777585203 | 23.89° C | 30% | 0 hPa | - | - | - | - |
| 1777584604 | 23.89° C | 30% | 0 hPa | - | - | - | - |
| 1777584004 | 23.33° C | 25% | 0 hPa | - | - | - | - |
| 1777583403 | 23.33° C | 30% | 0 hPa | - | - | - | - |
| 1777582803 | 22.78° C | 30% | 0 hPa | - | - | - | - |
| 1777582203 | 22.78° C | 29% | 0 hPa | - | - | - | - |
| 1777581603 | 22.78° C | 27% | 0 hPa | - | - | - | - |
| 1777581003 | 22.78° C | 27% | 0 hPa | - | - | - | - |
| 1777580403 | 21.67° C | 31% | 0 hPa | - | - | - | - |
| 1777579802 | 21.67° C | 30% | 0 hPa | - | - | - | - |
| 1777579203 | 21.67° C | 35% | 0 hPa | - | - | - | - |
| 1777578603 | 21.67° C | 33% | 0 hPa | - | - | - | - |
| 1777578003 | 21.67° C | 36% | 0 hPa | - | - | - | - |
| 1777577403 | 20.56° C | 34% | 0 hPa | - | - | - | - |
| 1777576803 | 20.56° C | 37% | 0 hPa | - | - | - | - |
| 1777576203 | 20° C | 37% | 0 hPa | - | - | - | - |
| 1777575604 | 19.44° C | 39% | 0 hPa | - | - | - | - |
| 1777575003 | 18.89° C | 44% | 0 hPa | - | - | - | - |
| 1777574403 | 18.89° C | 46% | 0 hPa | - | - | - | - |
| 1777573803 | 18.89° C | 44% | 0 hPa | - | - | - | - |
| 1777573203 | 18.33° C | 53% | 0 hPa | - | - | - | - |
| 1777572603 | 17.22° C | 56% | 0 hPa | - | - | - | - |
| 1777572004 | 16.67° C | 58% | 0 hPa | - | - | - | - |
* Rain since midnight (hover to see other rain measurements)
** Current wind speed in m/s (hover to see current wind gust speed)